This is the latest recevied weather packets stored in our database for station/object HS6PNA-2. If no packets are shown the sender has not sent any weather packets the latest 10 day(s).
| Time | Temp. | Humidity | Pressure | Rain* | Wind** | Luminosity | Snow |
|---|---|---|---|---|---|---|---|
| 1778098128 | 33.33° C | 47% | 1002 hPa | - | - | 0 W/m² | - |
| 1778097204 | 33.89° C | 46% | 1002 hPa | - | - | 0 W/m² | - |
| 1778096279 | 33.33° C | 46% | 1002 hPa | - | - | 0 W/m² | - |
| 1778095354 | 33.89° C | 46% | 1002 hPa | - | - | 0 W/m² | - |
| 1778094429 | 33.89° C | 46% | 1002 hPa | - | - | 0 W/m² | - |
| 1778093505 | 33.89° C | 45% | 1002 hPa | - | - | 0 W/m² | - |
| 1778092580 | 33.89° C | 45% | 1002 hPa | - | - | 0 W/m² | - |
| 1778091656 | 33.89° C | 45% | 1002 hPa | - | - | 0 W/m² | - |
| 1778090731 | 33.89° C | 45% | 1002 hPa | - | - | 0 W/m² | - |
| 1778089806 | 33.89° C | 44% | 1002 hPa | - | - | 0 W/m² | - |
| 1778088882 | 33.89° C | 44% | 1002 hPa | - | - | 0 W/m² | - |
| 1778087957 | 33.89° C | 44% | 1003 hPa | - | - | 0 W/m² | - |
| 1778087033 | 33.89° C | 44% | 1003 hPa | - | - | 0 W/m² | - |
| 1778086108 | 33.89° C | 43% | 1003 hPa | - | - | 0 W/m² | - |
| 1778085183 | 33.89° C | 43% | 1003 hPa | - | - | 0 W/m² | - |
| 1778084258 | 33.89° C | 43% | 1003 hPa | - | - | 0 W/m² | - |
| 1778083334 | 33.89° C | 43% | 1003 hPa | - | - | 0 W/m² | - |
| 1778082409 | 33.89° C | 43% | 1003 hPa | - | - | 0 W/m² | - |
| 1778081484 | 33.89° C | 43% | 1003 hPa | - | - | 0 W/m² | - |
| 1778080559 | 33.89° C | 44% | 1003 hPa | - | - | 0 W/m² | - |
| 1778079635 | 33.33° C | 45% | 1003 hPa | - | - | 0 W/m² | - |
| 1778078710 | 33.89° C | 42% | 1003 hPa | - | - | 0 W/m² | - |
| 1778077785 | 31.11° C | 40% | 1002 hPa | - | - | 0 W/m² | - |
| 1778076861 | 29.44° C | 35% | 1002 hPa | - | - | 0 W/m² | - |
| 1778075936 | 30.56° C | 31% | 1002 hPa | - | - | 0 W/m² | - |
* Rain since midnight (hover to see other rain measurements)
** Current wind speed in m/s (hover to see current wind gust speed)